Location: G�cklingen
(49.1618°N, 8.0402°E)
Time: 07:02:00
(UTC+00:00)

Daily predictions for brighter satellites

Satellite Brightness Start Highest point End
(mag) Time Altitude Azimuth Time Altitude Azimuth Time Altitude Azimuth
Cosmos 1707 Rocket 4.4 19:27:09 10° N 19:31:08 33° ENE 19:35:03 10° SE
Cosmos 220 Rocket 4.2 19:27:06 10° NNW 19:31:15 55° ENE 19:35:24 10° SE
Cosmos 1633 3.3 19:28:02 10° SSW 19:31:30 56° WNW 19:35:01 10° N
Cosmos 972 Rocket 4.0 19:28:04 10° NNW 19:33:09 83° WSW 19:38:02 10° SSE
Resurs 01 Rocket 1.9 19:29:00 10° SSE 19:33:18 54° ENE 19:37:39 10° N
Cosmos 1441 Rocket 3.7 19:35:11 10° SSE 19:38:44 39° E 19:42:17 10° NNE
IRIDIUM 114 4.4 19:36:15 10° SSE 19:41:23 62° E 19:46:33 10° N
Cosmos 614 Rocket 4.3 19:37:27 10° S 19:42:21 46° ESE 19:47:19 10° NNE
IGS 5A 4.4 19:41:20 10° SE 19:45:01 32° ENE 19:48:44 10° N
Cosmos 1900 4.3 19:40:37 10° SSW 19:45:33 74° ESE 19:50:36 10° NE
USA 267 3.4 19:41:33 10° ENE 19:47:55 51° SE 19:54:16 10° SSW
GP-B 4.2 19:45:56 10° NNE 19:49:42 26° E 19:53:14 11° SE
IRIDIUM 103 4.3 19:45:19 10° S 19:50:31 74° E 19:55:45 10° N
Cosmos 1821 Rocket 4.0 19:46:42 10° S 19:52:42 62° E 19:58:50 10° NNE
Shenzhou-11 Module 3.3 19:52:49 10° SW 19:54:30 17° S 19:55:30 14° SSE
COSMOS 2406 3.2 19:48:59 10° SSW 19:54:40 67° ESE 20:00:22 10° NNE
Cosmos 1743 Rocket 4.4 19:51:28 10° SSW 19:55:49 55° WNW 20:00:15 10° N
CZ-2C R/B 3.7 19:51:11 10° NNE 19:55:52 83° ESE 20:00:24 10° SSW
SL-16 R/B 4.0 19:53:01 10° N 19:57:15 21° NE 20:01:27 10° E
Intercosmos 25 3.3 19:52:55 10° N 19:57:44 81° E 20:01:09 10° SSE
ERS-1 Rocket 4.0 19:56:08 12° ESE 20:00:09 30° ENE 20:04:31 10° N
Lacrosse 5 3.0 19:55:44 10° NW 20:00:29 39° NNE 20:05:15 10° E
Cosmos 2369 3.8 19:57:06 10° NNW 20:02:52 77° ENE 20:08:05 13° SSE
Cosmos 1862 3.5 19:59:58 10° SSW 20:04:00 79° W 20:08:05 10° N
Sich 1 3.0 20:00:31 10° S 20:04:54 69° E 20:09:21 10° NNE
Cosmos 1818 3.7 20:02:06 10° NW 20:07:34 75° SW 20:12:24 13° SSE
BREEZE-M DEB (TANK) 1.7 20:05:08 10° W 20:08:21 89° N 20:09:54 14° E
IRIDIUM 106 4.5 20:03:36 10° S 20:08:50 79° W 20:14:05 10° N
Cosmos 2082 Rocket 2.7 20:04:40 10° S 20:09:53 38° ESE 20:15:06 10° NE
Cosmos 2278 3.9 20:06:26 10° NNW 20:12:09 64° ENE 20:16:44 16° SE
Cosmos 2123 Rocket 4.1 20:06:14 10° N 20:12:24 63° ENE 20:18:06 12° SSE
Meteor 2-20 4.5 20:08:01 10° N 20:14:12 73° E 20:20:08 11° SSE
Spot 2 Rocket 3.6 20:11:25 13° SSE 20:16:00 69° ENE 20:21:06 10° N
Cosmos 2322 Rocket 3.8 20:15:18 10° N 20:19:50 24° NE 20:24:21 10° E
Meteor 1-4 Rocket 2.4 20:16:40 10° N 20:20:10 64° ENE 20:22:27 19° SSE
Cosmos 2239 Rocket 4.4 20:15:53 10° S 20:22:02 86° E 20:28:14 10° N
Cosmos 1184 Rocket 3.6 20:21:02 22° SE 20:22:30 32° E 20:25:29 10° NNE
Cosmos 1190 Rocket 4.0 20:17:28 10° S 20:22:39 61° ESE 20:27:53 10° NNE
CARTOSAT-1 4.2 20:20:05 18° SE 20:22:51 40° ENE 20:26:55 10° N
CZ-2C R/B 4.0 20:18:36 10° N 20:23:26 41° WNW 20:28:17 10° SW
Terra 2.9 20:21:08 16° ESE 20:24:04 30° ENE 20:28:13 10° N
USA 234 3.3 20:18:46 15° ESE 20:24:22 89° SW 20:30:57 10° WNW
Cosmos 407 Rocket 3.5 20:20:15 10° SSW 20:25:34 77° ESE 20:30:53 10° NNE
Cosmos 1605 Rocket 4.3 20:21:08 13° SSE 20:26:13 44° E 20:31:57 10° NNE
Cosmos 1666 Rocket 3.4 20:22:12 10° S 20:26:30 77° E 20:30:51 10° NNE
Cosmos 1238 Rocket 3.4 20:28:02 23° ESE 20:28:27 24° E 20:30:53 10° NE
Okean 1 4.4 20:26:04 10° N 20:29:39 30° ENE 20:31:27 21° ESE
Meteor 1-27 Rocket 4.1 20:24:57 10° NNW 20:30:50 71° W 20:36:45 10° S
MetOp-B 4.3 20:25:45 10° S 20:31:01 72° WSW 20:36:24 10° NNW
Cosmos 2360 Rocket 4.2 20:29:49 10° N 20:33:48 19° NE 20:37:46 10° E
Cosmos 1437 Rocket 4.2 20:31:01 10° NNE 20:34:06 22° ENE 20:35:27 18° E
BREEZE-M DEB (TANK) 4.4 20:35:13 10° W 20:36:52 12° WSW 20:38:09 10° SW
ERBS 4.2 20:34:45 10° W 20:37:46 31° NNW 20:40:46 10° NE
SPOT 5 3.0 20:35:54 23° SE 20:38:19 49° ENE 20:42:32 10° N
USA 238 DEB 4.1 20:32:27 10° S 20:38:29 39° ESE 20:44:45 10° NE
USA 238 4.1 20:32:35 10° S 20:38:36 38° ESE 20:44:51 10° NE
Cosmos 1980 Rocket 2.2 20:37:37 10° NNW 20:43:20 88° WSW 20:47:05 22° SSE
SPOT 1/Viking Rocket 3.6 20:39:53 18° SSE 20:43:53 86° WSW 20:49:09 10° NNW
Cosmos 1703 Rocket 4.4 20:41:21 10° N 20:45:22 34° ENE 20:47:06 25° ESE
Cosmos 2242 Rocket 4.0 20:41:09 10° N 20:45:27 46° ENE 20:47:29 27° SE
Cosmos 1763 Rocket 4.2 20:43:09 10° NNW 20:48:14 42° ENE 20:51:08 23° ESE
SL-4 R/B 1.8 20:44:33 10° SW 20:48:23 52° SSE 20:51:35 12° ENE
Genesis I 3.1 20:45:08 10° NW 20:49:02 82° SW 20:50:44 32° SSE
BREEZE-M DEB (TANK) 2.6 20:46:19 10° W 20:49:11 89° N 20:57:13 10° E
Cosmos 405 Rocket 3.2 20:49:22 32° SE 20:50:15 38° E 20:53:44 10° NNE
Cosmos 1140 Rocket 3.5 20:45:59 10° SSW 20:51:15 85° WNW 20:56:32 10° NNE
ATLAS 5 CENTAUR R/B 3.9 20:46:59 10° WNW 20:51:50 27° WSW 20:57:14 10° S
USA 32 4.0 20:53:02 16° S 20:57:14 85° E 21:02:30 10° N
Cosmos 1697 Rocket 3.7 20:53:40 10° NW 20:58:51 39° WSW 21:03:04 15° S
Cosmos 1633 Rocket 3.6 20:55:28 10° SSW 20:59:50 60° WNW 21:04:15 10° N
Cosmos 1833 Rocket 3.2 20:54:58 10° SW 21:00:31 61° WNW 21:06:08 10° NNE
Cosmos 1867 3.5 21:01:28 10° SSW 21:06:52 73° SE 21:12:20 10° NE
Meteor 1-18 Rocket 4.2 21:01:17 10° N 21:06:55 75° ENE 21:09:50 29° SSE
CENTAUR R/B 3.1 21:04:45 27° SSE 21:07:04 35° ESE 21:13:13 10° NE
Okean 1-7 3.4 21:02:53 10° N 21:07:08 50° ENE 21:08:30 36° SE
Resurs 01 Rocket 4.0 21:07:00 10° SW 21:10:08 19° W 21:13:17 10° NW
Cosmos 1447 Rocket 4.5 21:07:39 10° N 21:14:03 86° E 21:17:47 27° S
FALCON 9 DEB 3.0 21:10:36 10° SW 21:14:04 65° SSE 21:15:22 34° E
Cosmos 1850 Rocket 4.4 21:14:18 33° SSE 21:15:58 43° ESE 21:20:57 10° NE
Meteor 2-4 Rocket 4.0 21:10:59 10° N 21:16:34 52° ENE 21:18:53 32° SE
Cosmos 1515 3.7 21:13:44 10° N 21:17:34 66° ENE 21:18:22 50° SE
SL-27 R/B 4.4 21:19:37 17° ENE 21:19:37 17° ENE 21:20:48 10° NE
Cosmos 676 Rocket 4.1 21:14:50 10° SSW 21:20:09 77° WNW 21:25:32 10° NNE
Cosmos 44 4.2 21:16:02 10° NNW 21:20:38 42° NE 21:23:09 24° E
ATLAS 5 CENTAUR R/B 2.7 21:18:36 10° NNW 21:21:02 39° NE 21:23:25 22° E
Meteor 1-25 Rocket 4.3 21:17:53 17° SSW 21:22:19 79° WNW 21:27:58 10° N
Cosmos 1470 Rocket 4.0 21:19:31 19° SSW 21:22:34 62° WNW 21:26:56 10° N
SWARM C 4.5 21:19:20 10° N 21:22:40 63° E 21:22:48 62° ESE
SWARM A 4.1 21:19:25 10° N 21:22:45 70° E 21:22:57 67° ESE
GP-B 4.5 21:23:02 10° NNW 21:27:05 35° W 21:30:41 12° SW
USA 267 3.6 21:24:36 10° NE 21:31:06 69° NNW 21:37:35 10° WSW
NOSS 3-2 (A) 3.3 21:27:11 10° SW 21:32:55 79° SE 21:39:33 10° NE
Cosmos 921 Rocket 3.6 21:29:28 10° NNW 21:33:31 47° WSW 21:34:51 34° SSW
ERS-1 Rocket 3.9 21:36:09 23° SSW 21:38:49 42° W 21:43:35 10° NNW
NOSS 3-2 (C) 3.4 21:35:51 28° S 21:38:51 58° ESE 21:45:16 10° NE
Cosmos 841 Rocket 3.7 21:35:08 10° NNW 21:40:19 59° ENE 21:42:00 39° ESE
Cosmos 540 Rocket 3.7 21:36:38 10° NNW 21:41:45 58° ENE 21:43:22 40° ESE
SL-16 R/B 2.1 21:36:31 10° NNW 21:42:15 84° ENE 21:44:17 42° SE
Cosmos 468 Rocket 4.2 21:38:38 10° NNW 21:43:55 67° WSW 21:45:45 40° S
Lacrosse 5 1.8 21:38:49 10° NW 21:43:56 90° SSW 21:45:31 45° SE
Cosmos 1741 Rocket 3.9 21:48:23 40° S 21:50:19 77° ESE 21:55:37 10° NNE
Cosmos 1570 Rocket 4.0 21:46:17 10° NNW 21:51:38 74° ENE 21:53:10 47° SE
Cosmos 2219 Rocket 3.9 21:48:25 10° NNW 21:53:04 25° NE 21:56:38 14° E
Cosmos 2208 Rocket 4.1 21:48:27 10° NNW 21:53:43 65° ENE 21:55:11 45° SE
Cosmos 2082 Rocket 3.4 21:48:33 10° WSW 21:53:56 42° NW 21:59:20 10° NNE
Cosmos 1814 Rocket 4.2 21:48:55 10° NNW 21:54:06 62° ENE 21:55:32 44° ESE
Cosmos 2237 4.5 21:52:56 10° NNW 21:58:37 60° ENE 22:00:35 39° ESE
Terra 2.8 22:00:01 29° SW 22:01:43 38° W 22:06:10 10° NNW
Cosmos 2322 Rocket 2.1 21:58:52 10° NNW 22:04:35 83° WSW 22:06:13 49° SSE
USA 234 4.2 22:06:06 28° SSW 22:07:54 32° SW 22:13:40 10° WNW
Cosmos 2100 Rocket 3.9 22:05:35 36° SSW 22:08:18 81° W 22:14:30 10° N
Meteor 1-11 Rocket 3.8 22:09:09 48° SE 22:10:19 59° E 22:15:58 10° NNE
Cosmos 1437 Rocket 3.9 22:06:59 10° NNW 22:10:24 32° W 22:10:50 31° WSW
Cosmos 1242 Rocket 3.6 22:09:09 10° N 22:12:07 36° NE 22:12:07 36° NE
Cosmos 1869 Rocket 3.8 22:13:01 50° SW 22:13:57 64° WNW 22:18:23 10° N
Cosmos 2360 Rocket 2.2 22:13:07 10° NNW 22:18:50 74° ENE 22:20:20 50° SE
COSMOS 2428 4.0 22:14:32 10° NNW 22:19:40 32° NE 22:22:36 21° E
Geosat 4.1 22:20:48 54° SSW 22:21:39 64° WSW 22:26:40 10° NW
ATLAS 3B R/B 2.8 22:21:12 44° SE 22:21:57 45° ESE 22:28:13 10° NE
Iridium 4 Rocket 3.5 22:21:45 48° WSW 22:22:28 55° W 22:26:38 10° N
Cosmos 2173 Rocket 4.1 22:21:11 35° SSW 22:23:55 68° WNW 22:30:03 10° N
Cosmos 1500 3.9 22:25:10 44° W 22:25:21 45° WNW 22:28:59 10° N
CRYOSAT 2 4.2 22:21:09 10° N 22:26:05 88° E 22:26:46 66° S
Cosmos 1980 Rocket 4.3 22:23:15 10° WNW 22:26:29 16° W 22:28:51 12° SW
SL-4 R/B 2.5 22:24:14 10° W 22:27:13 48° WNW 22:27:13 48° WNW
ALOS 2 2.9 22:27:44 54° E 22:27:59 55° ENE 22:32:18 10° N
Cosmos 1725 Rocket 3.9 22:27:20 49° S 22:29:11 79° E 22:35:31 10° NNE
USA 238 DEB 4.2 22:22:35 10° WSW 22:29:11 60° NW 22:36:07 10° NE
USA 238 4.2 22:22:43 10° WSW 22:29:17 60° NW 22:36:13 10° NE
Cosmos 1674 Rocket 3.7 22:28:56 10° N 22:33:13 62° ENE 22:33:13 62° ENE
SL-08 R/B 4.3 22:32:19 51° S 22:34:01 87° E 22:40:09 10° N
Cosmos 1536 2.9 22:34:39 69° NNE 22:34:39 69° NNE 22:38:15 10° NNE
Cosmos 1666 3.0 22:37:32 62° NNW 22:37:32 62° NNW 22:40:48 10° N
Cosmos 1743 4.1 22:38:17 30° ENE 22:38:17 30° ENE 22:40:56 10° NNE
Cosmos 2333 Rocket 2.9 22:33:41 10° NNW 22:39:19 49° NE 22:41:19 35° ESE
Cosmos 1356 4.4 22:41:30 46° N 22:41:30 46° N 22:44:02 10° N
Cosmos 1271 Rocket 3.7 22:37:40 10° N 22:40:47 39° NE 22:40:47 39° NE
Cosmos 2016 Rocket 4.1 22:39:51 42° SSW 22:42:07 73° W 22:48:31 10° N
Cosmos 2237 Rocket 4.2 22:38:43 10° N 22:43:10 23° NE 22:47:32 10° E
Cosmos 2061 Rocket 4.1 22:41:23 42° SSW 22:43:31 71° W 22:49:44 10° N
Lacrosse 4 Rocket 3.0 22:45:23 25° ENE 22:45:23 25° ENE 22:47:37 10° NE
MOS 1-B Rocket 4.0 22:39:01 10° N 22:44:43 65° WNW 22:46:43 39° SW
Cosmos 2221 Rocket 4.1 22:41:57 10° NNW 22:46:14 47° W 22:46:29 47° WSW
Cosmos 1733 Rocket 3.0 22:50:59 80° WNW 22:50:59 80° WNW 22:55:24 10° N
Cosmos 1066 Rocket 4.2 22:47:01 10° NNW 22:52:46 76° W 22:53:46 60° SSW
SL-27 R/B 4.2 22:53:09 26° WNW 22:53:09 26° WNW 22:56:02 10° N
Meteor 1-23 Rocket 4.2 22:48:44 10° NNW 22:54:35 78° W 22:55:43 59° SSW
Cosmos 44 Rocket 4.4 22:50:51 10° NNW 22:55:33 42° NE 22:57:31 29° E
Thor Agena Rocket 3.6 22:50:54 10° N 22:55:57 68° WNW 22:57:00 53° SW
CENTAUR R/B 3.0 22:51:50 13° WSW 22:57:19 62° NW 23:04:37 10° NE
Cosmos 968 Rocket 3.9 22:59:01 45° E 22:59:01 45° E 23:03:41 10° NE
Cosmos 1975 4.3 23:02:22 29° ENE 23:02:22 29° ENE 23:05:10 10° NNE
Cosmos 44 4.1 22:57:18 10° NW 23:01:33 39° WSW 23:01:33 39° WSW
SL-24 DEB 4.5 23:00:31 10° NNE 23:05:16 59° E 23:05:18 59° E
Cosmos 1378 4.0 23:09:37 10° NNW 23:12:29 47° NW 23:12:29 47° NW
USA 267 4.3 23:07:29 10° ENE 23:13:39 46° N 23:19:48 10° WNW
Cosmos 2233 Rocket 4.0 23:14:31 51° SSW 23:16:12 75° WNW 23:22:33 10° N
Cosmos 1464 Rocket 4.4 23:15:36 42° ESE 23:16:51 48° E 23:22:47 10° NNE
Cosmos 1908 Rocket 3.6 23:18:33 72° NE 23:18:33 72° NE 23:22:36 10° NNE
Cosmos 1842 4.0 23:14:21 10° N 23:17:41 49° NE 23:17:41 49° NE
Helios 1B rocket 4.3 23:19:14 10° NE 23:21:48 21° E 23:21:48 21° E
Cosmos 2227 Rocket 4.3 23:22:42 13° E 23:23:07 13° E 23:25:33 10° ENE
Meteor 1-21 4.5 23:18:20 10° N 23:24:08 62° ENE 23:25:21 50° SE
SL-16 R/B 4.0 23:21:57 10° WNW 23:25:36 18° W 23:26:08 18° WSW
Lacrosse 5 3.7 23:22:30 10° WNW 23:24:40 19° W 23:24:40 19° W
Cosmos 2322 3.7 23:23:27 10° NNW 23:29:04 63° WSW 23:29:31 61° SW
Cosmos 1378 Rocket 4.2 23:24:48 10° NNW 23:28:49 46° W 23:28:49 46° W
Cosmos 1833 4.3 23:28:45 51° WSW 23:30:06 70° WNW 23:35:48 10° NNE
COSMOS 2487 3.8 23:32:14 36° NNW 23:32:14 36° NNW 23:34:41 10° NNE
Nadezhda 4 Rocket 4.4 23:29:58 10° N 23:36:11 56° ENE 23:38:03 41° SE
Cosmos 2219 Rocket 2.0 23:31:57 10° NNW 23:37:39 77° WSW 23:38:19 68° S
Cosmos 1975 Rocket 3.1 23:38:04 10° N 23:42:25 81° NNE 23:42:25 81° NNE
Cosmos 2333 4.5 23:37:50 10° NW 23:43:26 50° WSW 23:43:44 50° WSW
Cosmos 2034 Rocket 4.3 23:43:53 46° SE 23:45:18 56° E 23:51:28 10° NNE
Okean 2 Rocket 4.1 23:45:22 35° E 23:45:22 35° E 23:49:24 10° NNE
Cosmos 1503 Rocket 3.9 23:45:55 71° SSE 23:46:22 76° ESE 23:51:45 10° NNE
Cosmos 2322 Rocket 4.2 23:44:47 10° WNW 23:47:45 15° W 23:48:01 14° W
Cosmos 1072 Rocket 4.3 23:46:51 60° S 23:48:04 85° E 23:54:14 10° N
YAOGAN 11 4.2 23:48:26 69° W 23:48:26 69° W 23:52:52 10° NNW
Helios 1A 3.5 23:49:48 49° WNW 23:49:48 49° WNW 23:53:22 10° NNW
Landsat 4 4.5 23:46:13 10° NNE 23:49:12 49° NE 23:49:12 49° NE
SL-16 R/B 4.0 23:46:15 15° ESE 23:50:39 32° ENE 23:56:05 10° N
ERBS 4.1 23:48:39 10° NW 23:51:02 31° N 23:51:02 31° N
Cosmos 1486 Rocket 4.3 23:52:11 51° WSW 23:53:07 59° WNW 23:58:16 10° NNE
CZ-2D R/B 4.1 23:49:36 10° NE 23:53:17 18° E 23:54:54 16° ESE
SL-16 R/B 4.0 23:48:37 10° NNW 23:53:28 28° NE 23:58:18 10° ESE
Cosmos 1544 4.1 23:54:38 42° NNW 23:54:38 42° NNW 23:57:25 10° N
Sich 1 Rocket 3.7 23:55:31 65° ENE 23:55:31 65° ENE 23:59:39 10° NNE
